Location: Baix
(44.7118°N, 4.7648°E)
Time: 19:20:42
(UTC+00:00)

Cosmos 1733 - Pass Details

Date: 07 August 2020
Orbit: 504 x 522 km, 82.5° (Epoch: 24 September)

Event Time Altitude Azimuth Distance (km) Brightness Sun altitude
Exits shadow 01:42:58 60° 85° (E) 593 3.5 -23.5°
Drops below altitude 10° 01:46:39 10° 16° (NNE) 1,754 6.9 -23.1°
Sets 01:48:49 0° 12° (NNE) 2,649 8.0 -22.9°
